#timestamp,LO_Frequency,Hit,StdDev 
1598301635.6,286047057.3,P
1598301655.4,286047057.3,P
1598301675.2,286047059.7,P
1598301695.1,286047059.6,Y
1598301696.0,286047059.6,P
1598301715.8,286047001.5,N
1598301735.7,286047002.5,N
1598301755.5,286047002.2,N
1598301775.3,286047001.3,N
1598301795.2,286047001.9,N
1598301815.9,286047001.4,N
1598301835.7,286047002.9,N
1598301855.6,286047002.9,N
1598301875.4,286047006.0,N
1598301895.2,286047005.9,N
1598301915.1,286047005.5,N
1598301916.0,286047005.5,N
1598301935.8,286047007.6,N
1598301955.7,286047007.6,N
1598301975.5,286047006.6,N
1598301995.3,286047007.2,N
1598302015.2,286047007.4,N
1598302035.0,286047007.3,N
1598302035.9,286047007.3,N
1598302055.8,286047006.3,N
1598302075.6,286047006.7,N
1598302095.4,286047006.3,N
1598302115.3,286047009.1,N
1598302135.1,286047006.1,N
1598302155.8,286047008.5,N
1598302175.7,286047010.6,N
1598302195.5,286047009.3,N
1598302215.3,286047010.0,N
1598302235.2,286047010.0,N
1598302255.0,286047010.2,N
1598302255.9,286047010.2,Y
1598302275.8,286047005.6,P
1598302295.6,286047004.9,P
1598302315.4,286047005.7,P
1598302335.3,286047007.2,Y
1598302355.1,286047000.4,P
1598302375.9,286047001.0,N
1598302395.7,286047002.4,N
1598302415.5,286047002.8,N
1598302435.4,286047002.6,N
1598302455.2,286047001.8,N
1598302475.0,286047001.7,N
1598302475.9,286047001.7,N
1598302495.8,286047002.0,N
1598302515.6,286047003.6,N
1598302535.5,286047003.5,N
1598302555.3,286047003.5,N
1598302575.1,286047005.4,Y
1598302595.9,286047000.3,P
1598302615.7,286047002.5,N
1598302635.5,286047002.3,N
1598302655.4,286047001.5,N
1598302675.2,286047001.7,N
1598302695.1,286047001.6,N
1598302696.0,286047001.6,N
1598302715.8,286047003.5,Y
1598302735.6,286047001.9,P
1598302755.5,286047000.2,N
1598302775.3,286047001.8,N
1598302795.2,286047003.8,Y
